This demonstration page uses our WeatherBlox Daily Observations layout. Learn more.

Left ArrowRight Arrow

44.31136, -96.79839

Hourly Observations for May 10, 2022

Temp ( °F °C ) Dew Point ( °F °C ) Humidity (%) Winds ( mph kmh ) Pressure ( in mb ) Visibility ( mi km ) Precip ( " mm )
12:56 am 00:56 Mostly Cloudy 52 11.1 44 6.7 75 75 N 3 6 29.84 1011 10 16 0.00 0.00
1:56 am 01:56 Cloudy 52 11.1 45 7.2 77 77 Calm 29.87 1011 10 16 0.00 0.00
2:56 am 02:56 Cloudy 51 10.6 47 8.3 86 86 SE 7 11 29.92 1013 10 16 0.00 0.00
3:56 am 03:56 Cloudy 53 11.7 47 8.3 80 80 Calm 29.95 1014 10 16 0.00 0.00
4:56 am 04:56 Cloudy 53 11.7 47 8.3 80 80 SE 5 7 29.98 1015 10 16 0.00 0.00
5:56 am 05:56 Cloudy 52 11.1 46 7.8 80 80 Calm 30.01 1016 10 16 0.00 0.00
6:56 am 06:56 Cloudy 51 10.6 47 8.3 86 86 Calm 30.03 1017 10 16 0.00 0.00
7:56 am 07:56 Cloudy 53 11.7 49 9.4 86 86 NNW 6 9 30.07 1018 10 16 0.00 0.00
8:56 am 08:56 Cloudy 56 13.3 47 8.3 72 72 Calm 30.08 1019 10 16 0.00 0.00
9:56 am 09:56 Mostly Cloudy 59 15 46 7.8 62 62 NE 7 11 30.10 1019 10 16 0.00 0.00
10:56 am 10:56 Sunny 63 17.2 44 6.7 50 50 NNE 9 15 30.10 1019 10 16 0.00 0.00
11:56 am 11:56 Sunny 65 18.3 43 6.1 45 45 N 10 17 30.10 1019 10 16 0.00 0.00
12:56 pm 12:56 Sunny 67 19.4 41 5 39 39 NNW 9 15 30.09 1019 10 16 0.00 0.00
1:56 pm 13:56 Sunny 70 21.1 39 3.9 32 32 NE 8 13 30.08 1019 10 16 0.00 0.00
2:56 pm 14:56 Sunny 71 21.7 38 3.3 30 30 VRB 6 9 30.07 1018 10 16 0.00 0.00
3:56 pm 15:56 Sunny 73 22.8 40 4.4 30 30 E 7 11 30.07 1018 10 16 0.00 0.00
4:56 pm 16:56 Sunny 73 22.8 39 3.9 29 29 NNE 7 11 30.06 1018 10 16 0.00 0.00
5:56 pm 17:56 Sunny 73 22.8 41 5 32 32 E 3 6 30.08 1019 10 16 0.00 0.00
6:56 pm 18:56 Sunny 71 21.7 40 4.4 32 32 E 7 11 30.08 1019 10 16 0.00 0.00
7:56 pm 19:56 Sunny 70 21.1 39 3.9 32 32 ENE 8 13 30.08 1019 10 16 0.00 0.00
8:56 pm 20:56 Clear 68 20 39 3.9 35 35 ENE 8 13 30.08 1019 10 16 0.00 0.00
9:56 pm 21:56 Clear 66 18.9 39 3.9 37 37 E 8 13 30.11 1020 10 16 0.00 0.00
10:56 pm 22:56 Clear 60 15.6 42 5.6 52 52 NE 7 11 30.12 1020 10 16 0.00 0.00
11:56 pm 23:56 Clear 59 15 44 6.7 58 58 NE 9 15 30.11 1020 10 16 0.00 0.00

Powered by AerisWeather